This is the latest recevied weather packets stored in our database for station/object NN5DX-12. If no packets are shown the sender has not sent any weather packets the latest 1 day(s).
| Time | Temp. | Humidity | Pressure | Rain* | Wind** | Luminosity | Snow |
|---|---|---|---|---|---|---|---|
| 1778008216 | -0.56° C | 95% | 1010.7 hPa | 0.51 mm | 0.45 m/s, 113° | - | - |
| 1778007916 | -0.56° C | 95% | 1010.7 hPa | 0.51 mm | 0.45 m/s, 113° | - | - |
| 1778007616 | -0.56° C | 95% | 1010.1 hPa | 0.51 mm | 0.45 m/s, 135° | - | - |
| 1778007316 | -1.11° C | 95% | 1010.1 hPa | 0.51 mm | 0.89 m/s, 135° | - | - |
| 1778007016 | -1.11° C | 95% | 1010.2 hPa | 0.51 mm | 0.45 m/s, 113° | - | - |
| 1778006716 | -1.11° C | 95% | 1010.2 hPa | 0.25 mm | 0.45 m/s, 135° | - | - |
| 1778006416 | -0.56° C | 95% | 1010.3 hPa | 0.25 mm | 0.89 m/s, 113° | - | - |
| 1778006116 | -0.56° C | 96% | 1010.9 hPa | 0.25 mm | 0.45 m/s, 113° | - | - |
| 1778005817 | -0.56° C | 95% | 1010.8 hPa | 0.25 mm | 0.45 m/s, 113° | - | - |
| 1778005516 | -0.56° C | 96% | 1010.8 hPa | 0.25 mm | 0.45 m/s, 23° | - | - |
| 1778004916 | -1.11° C | 95% | 1010.2 hPa | 0 mm | 0.45 m/s, 113° | - | - |
| 1778004616 | -1.11° C | 95% | 1010.2 hPa | 0 mm | 0.45 m/s, 113° | - | - |
| 1778004316 | -1.11° C | 95% | 1010.1 hPa | 0 mm | 0.45 m/s, 113° | - | - |
| 1778004021 | -1.11° C | 95% | 1010.1 hPa | 0 mm | 0.45 m/s, 113° | - | - |
| 1778003716 | -1.11° C | 95% | 1010.1 hPa | 0 mm | 0.89 m/s, 113° | - | - |
| 1778003116 | -1.11° C | 95% | 1010.2 hPa | 0 mm | 0.45 m/s, 113° | - | - |
| 1778002816 | -1.11° C | 96% | 1010.1 hPa | 0 mm | 0.45 m/s, 135° | - | - |
| 1778001916 | -1.11° C | 96% | 1010.1 hPa | 0 mm | 0.45 m/s, 113° | - | - |
| 1778001316 | -1.11° C | 95% | 1010 hPa | 0 mm | 0.89 m/s, 135° | - | - |
| 1778001016 | -1.11° C | 96% | 1010 hPa | 0 mm | 0.45 m/s, 135° | - | - |
| 1778000436 | -1.11° C | 96% | 1009.8 hPa | 0 mm | 0.45 m/s, 90° | - | - |
| 1777999516 | -1.11° C | 96% | 1009.9 hPa | 0 mm | 0.45 m/s, 135° | - | - |
| 1777999216 | -1.11° C | 96% | 1009.9 hPa | 0 mm | 0.45 m/s, 113° | - | - |
| 1777998916 | -1.11° C | 96% | 1009.9 hPa | 0 mm | 0.45 m/s, 113° | - | - |
| 1777998016 | -1.11° C | 96% | 1010.4 hPa | 0 mm | 0.45 m/s, 135° | - | - |
* Rain latest hour (hover to see other rain measurements)
** Current wind speed in m/s (hover to see current wind gust speed)